SCOUT A DEB, 2386

Orbit data source: Space-Track

SCOUT A DEB, 2386 is space debris in LEO originally from a launch on Sat, 26 Mar 1966 UTC launched from the Air Force Western Test Range (AFWTR). Debris objects in space refer to the collection of defunct objects orbiting the Earth. Examples of debris include non-operational satellites, rocket bodies, and fragments generated from explosions, collisions, or faulty payload assembly.

Loading next visibility...
Identifier
2386, 1966-024D
Orbit
LEO
Last TLE update
1 day ago
Origin
Manufacturer
Unknown
Mission
Spacecraft
Bus & Motor
Unknown
Mass
Unknown
Launch date (UTC)
1966-03-26 (59 years ago)
Launch vehicle
Unknown
Launch site
Air Force Western Test Range (AFWTR)
Object type
Payload
Rocket body
Debris
Shape & HBR
Unknown
Radar Cross Section
Small (<0.1 m²)

Expand to show TLE details & history

TLE from 1 day ago
0 SCOUT A DEB
1  2386U 66024D   25181.87884442  .00000202  00000-0  17085-3 0  9997
2  2386  90.0517 329.6062 0127030 329.2305  30.1459 13.81378028655344
Epoch: 2025-06-30T21:05Z
TLE epoch observation values (Epoch: 2025-06-30T21:05:32.157Z)
Latitude
0.00003°
Longitude
94.03989°
Altitude
881.692 km
Speed
7.452 km/s
True Right ascension
21h 58m 25s
True Declination
0° 00' 00"
Sunlit
Object was in full shadow at epoch
Visualization orbit readout
Latitude
-45.88584°
Longitude
-86.00653°
Altitude
991.722 km
Speed
7.347 km/s
Apparent Right ascension
06h 00m 08s
Apparent Declination
-63° 16' 51"
Sunlit
Object is in daylight
Visualization observer readout
Local Sidereal Time
13:41:26
Azimuth
215.888° SW
Elevation
-46.108°
Doppler factor
1
Orbital elements
Apogee altitude
1,049.172 km
Perigee altitude
862.841 km
Semi-major axis
7,334.144 km
Eccentricity
0.0127
Inclination
90.0517°
RAAN
329.6062°
Arg. of periapsis
329.2305°
True anomaly
Unknown
Mean anomaly
30.1459°
Eccentric anomaly
Unknown
Mean motion
3.45556 °/min
Orbital period
104.18 mins
BSTAR
0.00017085
Loading maneuver chart data...
Loading SW <> Apogee altitude chart data...
Loading historical data...
Loading historical data...
Loading historical data...
Loading historical data...
Loading historical data...
Loading historical data...
Loading historical data...

SCOUT A DEB Visibility forecast

Observer location: undefined°, undefined°

Span
Click to sort rows by Start time (UTC) header in descending order
Start Az.
Max El. time (UTC)
Max El. Az.
Max El.
End time (UTC)
End Az.
10 mins2025-07-02 09:42:25.885Z154.88° SSE2025-07-02 09:47:25.885Z84.271° E38.349°2025-07-02 09:52:25.885Z10.176° NNE
6 mins2025-07-02 11:29:25.885Z248.329° W2025-07-02 11:32:25.885Z287° WNW19.543°2025-07-02 11:35:25.885Z320.635° NNW
6 mins2025-07-02 20:39:25.885Z49.487° ENE2025-07-02 20:42:25.885Z80.807° E16.734°2025-07-02 20:45:25.885Z110.904° ESE
11 mins2025-07-02 22:21:25.885Z357.105° N2025-07-02 22:26:25.885Z305.31° NW43.381°2025-07-02 22:32:25.885Z193.147° SSW
|